When you browse on this site, cookies collect data to enhance your experience and personalize the content and advertising you see.
Visit our Privacy Policy to learn more. By continuing to use the site, you agree to this use of cookies and data.
  • En España
  • Lista de países
  • Para 7 días
  • Temperatura del agua
  • Mapa Satelital
  • El tiempo en el mapa
  • Informadores
  • user-avatar
    Iniciar sesión

    Tiempo cada hora Patna

    Hoy, 17 Febrero, Domingo

    Tiempo Temperatura Precipitaciones Viento Presión Humedad
    00:00 +18°C° 0 mm 2 mps 754 mmHg 77%
    01:00 +18°C° 0 mm 3 mps 754 mmHg 80%
    02:00 +17°C° 0 mm 3 mps 754 mmHg 83%
    03:00 +17°C° 0 mm 3 mps 754 mmHg 86%
    04:00 +16°C° 0 mm 3 mps 754 mmHg 89%
    05:00 +16°C° 0 mm 3 mps 754 mmHg 91%
    06:00 +14°C° 0 mm 4 mps 753 mmHg 95%
    07:00 +15°C° 0 mm 5 mps 754 mmHg 90%
    08:00 +16°C° 0 mm 5 mps 754 mmHg 84%
    09:00 +17°C° 0 mm 5 mps 755 mmHg 78%
    10:00 +20°C° 0 mm 6 mps 755 mmHg 71%
    11:00 +22°C° 0 mm 6 mps 754 mmHg 64%
    12:00 +24°C° 0 mm 6 mps 755 mmHg 56%
    13:00 +24°C° 0 mm 6 mps 754 mmHg 54%
    14:00 +26°C° 0 mm 6 mps 753 mmHg 51%
    15:00 +26°C° 0 mm 6 mps 752 mmHg 49%
    16:00 +25°C° 0 mm 5 mps 752 mmHg 54%
    17:00 +23°C° 0 mm 4 mps 752 mmHg 59%
    18:00 +21°C° 0 mm 3 mps 751 mmHg 64%
    19:00 +20°C° 0 mm 3 mps 752 mmHg 66%
    20:00 +19°C° 0 mm 3 mps 752 mmHg 69%
    21:00 +18°C° 0 mm 3 mps 752 mmHg 71%
    22:00 +18°C° 0 mm 3 mps 752 mmHg 72%
    23:00 +17°C° 0 mm 3 mps 752 mmHg 73%

    Mañana, 18 Febrero, Lunes

    Tiempo Temperatura Precipitaciones Viento Presión Humedad
    00:00 +17°C° 0 mm 3 mps 752 mmHg 73%
    01:00 +16°C° 0 mm 3 mps 752 mmHg 75%
    02:00 +16°C° 0 mm 3 mps 752 mmHg 77%
    03:00 +14°C° 0 mm 3 mps 752 mmHg 78%
    04:00 +14°C° 0 mm 3 mps 752 mmHg 78%
    05:00 +14°C° 0 mm 3 mps 752 mmHg 77%
    06:00 +14°C° 0 mm 3 mps 752 mmHg 77%
    07:00 +16°C° 0 mm 3 mps 753 mmHg 73%
    08:00 +17°C° 0 mm 3 mps 753 mmHg 70%
    09:00 +18°C° 0 mm 3 mps 754 mmHg 66%
    10:00 +20°C° 0 mm 3 mps 754 mmHg 60%
    11:00 +22°C° 0 mm 3 mps 754 mmHg 55%
    12:00 +25°C° 0 mm 3 mps 754 mmHg 49%
    13:00 +25°C° 0 mm 3 mps 754 mmHg 45%
    14:00 +26°C° 0 mm 3 mps 753 mmHg 42%
    15:00 +27°C° 0 mm 3 mps 752 mmHg 39%
    16:00 +26°C° 0 mm 3 mps 752 mmHg 43%
    17:00 +24°C° 0 mm 2 mps 752 mmHg 48%
    18:00 +23°C° 0 mm 2 mps 752 mmHg 52%
    19:00 +21°C° 0 mm 2 mps 753 mmHg 53%
    20:00 +22°C° 0 mm 1 mps 753 mmHg 54%
    21:00 +21°C° 0 mm 1 mps 753 mmHg 54%
    22:00 +20°C° 0 mm 1 mps 753 mmHg 56%
    23:00 +20°C° 0 mm 1 mps 753 mmHg 58%

    Pasado mañana, 19 Febrero, Martes

    Tiempo Temperatura Precipitaciones Viento Presión Humedad
    00:00 +19°C° 0 mm 1 mps 753 mmHg 59%
    01:00 +17°C° 0 mm 0 mps 753 mmHg 62%
    02:00 +16°C° 0 mm 0 mps 753 mmHg 64%
    03:00 +16°C° 0 mm 0 mps 753 mmHg 66%
    04:00 +15°C° 0 mm 0 mps 753 mmHg 67%
    05:00 +16°C° 0 mm 1 mps 753 mmHg 68%
    06:00 +16°C° 0 mm 1 mps 753 mmHg 70%
    07:00 +19°C° 0 mm 1 mps 754 mmHg 65%
    08:00 +18°C° 0 mm 0 mps 755 mmHg 61%
    09:00 +20°C° 0 mm 0 mps 756 mmHg 57%
    10:00 +22°C° 0 mm 0 mps 756 mmHg 51%
    11:00 +24°C° 0 mm 0 mps 756 mmHg 45%
    12:00 +26°C° 0 mm 0 mps 756 mmHg 39%
    13:00 +28°C° 0 mm 1 mps 756 mmHg 37%
    14:00 +29°C° 0 mm 1 mps 755 mmHg 35%
    15:00 +29°C° 0 mm 2 mps 754 mmHg 33%
    16:00 +28°C° 0 mm 2 mps 754 mmHg 38%
    17:00 +27°C° 0 mm 2 mps 754 mmHg 42%
    18:00 +25°C° 0 mm 1 mps 754 mmHg 46%
    19:00 +24°C° 0 mm 1 mps 755 mmHg 48%
    20:00 +23°C° 0 mm 1 mps 755 mmHg 49%
    21:00 +22°C° 0 mm 1 mps 756 mmHg 51%
    22:00 +22°C° 0 mm 1 mps 756 mmHg 53%
    23:00 +21°C° 0 mm 1 mps 756 mmHg 55%

    20 Febrero, Miércoles

    Tiempo Temperatura Precipitaciones Viento Presión Humedad
    00:00 +21°C° 0 mm 1 mps 756 mmHg 57%
    01:00 +20°C° 0 mm 1 mps 755 mmHg 59%
    02:00 +20°C° 0 mm 1 mps 755 mmHg 62%
    03:00 +19°C° 0 mm 1 mps 755 mmHg 65%
    04:00 +19°C° 0 mm 1 mps 755 mmHg 66%
    05:00 +17°C° 0 mm 0 mps 755 mmHg 68%
    06:00 +16°C° 0 mm 0 mps 755 mmHg 70%
    07:00 +18°C° 0 mm 0 mps 756 mmHg 65%
    08:00 +22°C° 0 mm 1 mps 757 mmHg 60%
    09:00 +23°C° 0 mm 1 mps 757 mmHg 55%
    10:00 +26°C° 0 mm 1 mps 757 mmHg 50%
    11:00 +28°C° 0 mm 1 mps 757 mmHg 44%
    12:00 +30°C° 0 mm 1 mps 757 mmHg 38%
    13:00 +30°C° 0 mm 1 mps 756 mmHg 36%
    14:00 +31°C° 0 mm 2 mps 756 mmHg 34%
    15:00 +31°C° 0 mm 3 mps 755 mmHg 32%
    16:00 +30°C° 0 mm 3 mps 755 mmHg 37%
    17:00 +29°C° 0 mm 2 mps 755 mmHg 41%
    18:00 +27°C° 0 mm 2 mps 755 mmHg 46%
    19:00 +26°C° 0 mm 2 mps 756 mmHg 48%
    20:00 +25°C° 0 mm 2 mps 757 mmHg 50%
    21:00 +24°C° 0 mm 2 mps 757 mmHg 53%
    22:00 +23°C° 0 mm 2 mps 757 mmHg 55%
    23:00 +21°C° 0 mm 2 mps 757 mmHg 57%

    21 Febrero, Jueves

    Tiempo Temperatura Precipitaciones Viento Presión Humedad
    00:00 +21°C° 0 mm 2 mps 757 mmHg 60%
    01:00 +20°C° 0 mm 2 mps 757 mmHg 62%
    02:00 +20°C° 0 mm 2 mps 756 mmHg 64%
    03:00 +19°C° 0 mm 2 mps 756 mmHg 66%
    04:00 +18°C° 0 mm 2 mps 756 mmHg 68%
    05:00 +19°C° 0 mm 1 mps 756 mmHg 69%
    06:00 +18°C° 0 mm 1 mps 756 mmHg 71%
    07:00 +20°C° 0 mm 1 mps 757 mmHg 65%
    08:00 +19°C° 0 mm 0 mps 758 mmHg 60%
    09:00 +21°C° 0 mm 0 mps 758 mmHg 54%
    10:00 +25°C° 0 mm 1 mps 758 mmHg 48%
    11:00 +27°C° 0 mm 1 mps 758 mmHg 42%
    12:00 +29°C° 0 mm 1 mps 758 mmHg 35%
    13:00 +30°C° 0 mm 2 mps 757 mmHg 34%
    14:00 +31°C° 0 mm 2 mps 756 mmHg 32%
    15:00 +33°C° 0 mm 3 mps 755 mmHg 30%
    16:00 +30°C° 0 mm 2 mps 755 mmHg 34%
    17:00 +29°C° 0 mm 2 mps 754 mmHg 39%
    18:00 +27°C° 0 mm 2 mps 754 mmHg 43%
    19:00 +26°C° 0 mm 1 mps 755 mmHg 44%
    20:00 +25°C° 0 mm 1 mps 755 mmHg 46%
    21:00 +24°C° 0 mm 1 mps 755 mmHg 47%
    22:00 +23°C° 0 mm 1 mps 755 mmHg 48%
    23:00 +23°C° 0 mm 1 mps 755 mmHg 49%

    22 Febrero, Viernes

    Tiempo Temperatura Precipitaciones Viento Presión Humedad
    00:00 +22°C° 0 mm 1 mps 754 mmHg 50%
    01:00 +22°C° 0 mm 1 mps 754 mmHg 52%
    02:00 +21°C° 0 mm 1 mps 754 mmHg 54%
    03:00 +21°C° 0 mm 1 mps 753 mmHg 55%
    04:00 +21°C° 0 mm 1 mps 754 mmHg 56%
    05:00 +20°C° 0 mm 1 mps 754 mmHg 58%
    06:00 +20°C° 0 mm 1 mps 754 mmHg 59%
    07:00 +22°C° 0 mm 1 mps 754 mmHg 56%
    08:00 +23°C° 0 mm 1 mps 755 mmHg 54%
    09:00 +25°C° 0 mm 2 mps 755 mmHg 51%
    10:00 +27°C° 0 mm 2 mps 755 mmHg 46%
    11:00 +29°C° 0 mm 2 mps 755 mmHg 41%
    12:00 +31°C° 0 mm 2 mps 755 mmHg 35%
    13:00 +33°C° 0 mm 3 mps 754 mmHg 33%
    14:00 +34°C° 0 mm 3 mps 753 mmHg 31%
    15:00 +35°C° 0 mm 3 mps 752 mmHg 30%
    16:00 +34°C° 0 mm 3 mps 752 mmHg 34%
    17:00 +31°C° 0 mm 3 mps 752 mmHg 39%
    18:00 +29°C° 0 mm 2 mps 751 mmHg 43%
    19:00 +28°C° 0 mm 2 mps 752 mmHg 45%
    20:00 +27°C° 0 mm 2 mps 752 mmHg 47%
    21:00 +26°C° 0 mm 2 mps 753 mmHg 49%
    22:00 +25°C° 0 mm 2 mps 753 mmHg 50%
    23:00 +24°C° 0 mm 2 mps 753 mmHg 51%
    Mostrar más